Time,TemperatureF,DewpointF,PressureIn,WindDirection,WindDirectionDegrees,WindSpeedMPH,WindSpeedGustMPH,Humidity,HourlyPrecipIn,Conditions,Clouds,dailyrainin,SoftwareType,DateUTC
2014-10-24 00:00:00,48.2,46.3,29.85,NNE,22,0.0,2.0,93,0.01,,,0.95,VWS V14.01,2014-10-24 04:00:00,
2014-10-24 00:30:00,48.1,46.2,29.84,NNE,22,0.0,3.0,93,0.00,,,0.95,VWS V14.01,2014-10-24 04:30:00,
2014-10-24 01:00:00,48.0,46.1,29.83,ESE,112,0.0,1.0,93,0.00,,,0.00,VWS V14.01,2014-10-24 05:00:00,
2014-10-24 01:30:00,48.0,46.1,29.84,ESE,112,0.0,2.0,93,0.00,,,0.00,VWS V14.01,2014-10-24 05:30:00,
2014-10-24 02:00:00,47.8,45.9,29.84,ESE,112,0.0,2.0,93,0.00,,,0.00,VWS V14.01,2014-10-24 06:00:00,
2014-10-24 02:30:00,47.4,45.5,29.84,ESE,112,1.0,4.0,93,0.00,,,0.00,VWS V14.01,2014-10-24 06:30:00,
2014-10-24 03:00:00,46.7,44.8,29.84,ESE,112,1.0,4.0,93,0.00,,,0.00,VWS V14.01,2014-10-24 07:00:00,
2014-10-24 03:30:00,46.4,44.8,29.83,ESE,112,0.0,1.0,94,0.01,,,0.01,VWS V14.01,2014-10-24 07:30:00,
2014-10-24 04:00:00,46.4,44.8,29.83,ESE,112,0.0,0.0,94,0.01,,,0.01,VWS V14.01,2014-10-24 08:00:00,
2014-10-24 04:30:00,46.4,44.8,29.81,ESE,112,0.0,0.0,94,0.01,,,0.01,VWS V14.01,2014-10-24 08:30:00,
2014-10-24 05:00:00,46.4,44.8,29.81,ESE,112,0.0,0.0,94,0.01,,,0.02,VWS V14.01,2014-10-24 09:00:00,
2014-10-24 05:30:00,46.5,44.9,29.81,ESE,112,0.0,0.0,94,0.01,,,0.02,VWS V14.01,2014-10-24 09:30:00,
2014-10-24 06:00:00,46.6,45.0,29.83,ESE,112,0.0,3.0,94,0.01,,,0.02,VWS V14.01,2014-10-24 10:00:00,
2014-10-24 06:37:00,46.4,44.8,29.83,ESE,112,0.0,3.0,94,0.02,,,0.04,VWS V14.01,2014-10-24 10:37:00,
2014-10-24 06:42:00,46.2,44.6,29.84,ESE,106,0.0,3.0,94,0.01,,,0.08,VWS V14.01,2014-10-24 10:42:00,
2014-10-24 06:47:00,46.1,44.5,29.84,ESE,106,0.0,3.0,94,0.01,,,0.08,VWS V14.01,2014-10-24 10:47:00,
2014-10-24 06:52:00,46.0,44.4,29.84,ESE,106,0.0,3.0,94,0.02,,,0.09,VWS V14.01,2014-10-24 10:52:00,
2014-10-24 06:57:00,46.0,44.4,29.84,ESE,106,0.0,3.0,94,0.02,,,0.09,VWS V14.01,2014-10-24 10:57:00,
2014-10-24 07:02:00,45.9,44.3,29.84,ESE,106,0.0,0.0,94,0.00,,,0.09,VWS V14.01,2014-10-24 11:02:00,
2014-10-24 07:07:00,45.9,44.3,29.85,ESE,106,0.0,2.0,94,0.00,,,0.09,VWS V14.01,2014-10-24 11:07:00,
2014-10-24 07:12:00,45.9,44.3,29.85,ESE,106,0.0,3.0,94,0.00,,,0.09,VWS V14.01,2014-10-24 11:12:00,
2014-10-24 07:17:00,45.9,44.3,29.85,ESE,106,0.0,3.0,94,0.00,,,0.09,VWS V14.01,2014-10-24 11:17:00,
2014-10-24 07:22:00,45.9,44.3,29.85,ESE,106,0.0,3.0,94,0.00,,,0.09,VWS V14.01,2014-10-24 11:22:00,
2014-10-24 07:27:00,45.9,44.3,29.85,ESE,106,0.0,3.0,94,0.00,,,0.09,VWS V14.01,2014-10-24 11:27:00,
2014-10-24 07:32:00,45.8,44.2,29.85,ESE,111,0.0,0.0,94,0.00,,,0.09,VWS V14.01,2014-10-24 11:32:00,
2014-10-24 07:37:00,45.8,43.9,29.85,ESE,111,1.0,1.0,93,0.01,,,0.10,VWS V14.01,2014-10-24 11:37:00,
2014-10-24 07:42:00,45.7,44.1,29.85,ESE,111,0.0,2.0,94,0.01,,,0.10,VWS V14.01,2014-10-24 11:42:00,
2014-10-24 07:47:00,45.7,44.1,29.85,ESE,111,0.0,2.0,94,0.01,,,0.10,VWS V14.01,2014-10-24 11:47:00,
2014-10-24 07:52:00,45.7,44.1,29.85,ESE,111,0.0,2.0,94,0.01,,,0.10,VWS V14.01,2014-10-24 11:52:00,
2014-10-24 07:57:00,45.6,44.0,29.85,ESE,111,0.0,2.0,94,0.02,,,0.11,VWS V14.01,2014-10-24 11:57:00,
2014-10-24 08:02:00,45.7,44.1,29.85,ESE,111,0.0,0.0,94,0.02,,,0.11,VWS V14.01,2014-10-24 12:02:00,
2014-10-24 08:07:00,45.7,44.1,29.85,ESE,111,0.0,0.0,94,0.02,,,0.11,VWS V14.01,2014-10-24 12:07:00,
2014-10-24 08:12:00,45.8,44.2,29.85,ESE,111,0.0,0.0,94,0.03,,,0.12,VWS V14.01,2014-10-24 12:12:00,
2014-10-24 08:17:00,45.9,44.3,29.85,ESE,111,0.0,0.0,94,0.03,,,0.12,VWS V14.01,2014-10-24 12:17:00,
2014-10-24 08:22:00,46.0,44.4,29.85,ESE,111,0.0,1.0,94,0.03,,,0.12,VWS V14.01,2014-10-24 12:22:00,
2014-10-24 08:27:00,46.1,44.5,29.85,ESE,111,0.0,1.0,94,0.03,,,0.12,VWS V14.01,2014-10-24 12:27:00,
2014-10-24 08:32:00,46.2,44.6,29.85,ESE,111,0.0,0.0,94,0.03,,,0.12,VWS V14.01,2014-10-24 12:32:00,
2014-10-24 08:37:00,46.1,44.5,29.85,ESE,111,0.0,0.0,94,0.03,,,0.12,VWS V14.01,2014-10-24 12:37:00,
2014-10-24 08:42:00,46.1,44.5,29.85,ESE,111,0.0,0.0,94,0.03,,,0.12,VWS V14.01,2014-10-24 12:42:00,
2014-10-24 08:47:00,46.1,44.5,29.85,ESE,111,0.0,0.0,94,0.03,,,0.12,VWS V14.01,2014-10-24 12:47:00,
2014-10-24 08:52:00,46.1,44.5,29.85,ESE,111,0.0,0.0,94,0.03,,,0.12,VWS V14.01,2014-10-24 12:52:00,
2014-10-24 08:57:00,46.3,44.4,29.85,ESE,111,0.0,0.0,93,0.03,,,0.12,VWS V14.01,2014-10-24 12:57:00,
2014-10-24 09:02:00,46.4,44.8,29.85,ESE,111,0.0,0.0,94,0.01,,,0.12,VWS V14.01,2014-10-24 13:02:00,
2014-10-24 09:07:00,46.5,44.9,29.86,ESE,111,0.0,0.0,94,0.01,,,0.12,VWS V14.01,2014-10-24 13:07:00,
2014-10-24 09:12:00,46.6,45.0,29.86,ESE,111,0.0,0.0,94,0.01,,,0.12,VWS V14.01,2014-10-24 13:12:00,
2014-10-24 09:17:00,46.7,45.1,29.86,ESE,111,0.0,0.0,94,0.02,,,0.13,VWS V14.01,2014-10-24 13:17:00,
2014-10-24 09:22:00,46.8,44.9,29.86,ESE,111,0.0,1.0,93,0.02,,,0.13,VWS V14.01,2014-10-24 13:22:00,
2014-10-24 09:27:00,46.8,44.9,29.86,ESE,111,0.0,1.0,93,0.02,,,0.13,VWS V14.01,2014-10-24 13:27:00,
2014-10-24 09:32:00,46.9,45.0,29.86,ESE,111,0.0,0.0,93,0.01,,,0.13,VWS V14.01,2014-10-24 13:32:00,
2014-10-24 09:37:00,47.0,45.4,29.86,ESE,111,0.0,1.0,94,0.01,,,0.13,VWS V14.01,2014-10-24 13:37:00,
2014-10-24 09:42:00,47.0,45.4,29.86,ESE,111,1.0,2.0,94,0.01,,,0.13,VWS V14.01,2014-10-24 13:42:00,
2014-10-24 09:47:00,46.9,45.3,29.87,ESE,111,0.0,2.0,94,0.01,,,0.13,VWS V14.01,2014-10-24 13:47:00,
2014-10-24 09:52:00,46.9,45.3,29.86,ESE,111,0.0,3.0,94,0.01,,,0.13,VWS V14.01,2014-10-24 13:52:00,
2014-10-24 09:57:00,47.0,45.4,29.86,ESE,111,0.0,3.0,94,0.01,,,0.13,VWS V14.01,2014-10-24 13:57:00,
2014-10-24 10:02:00,47.0,45.4,29.86,ESE,111,0.0,2.0,94,0.01,,,0.13,VWS V14.01,2014-10-24 14:02:00,
2014-10-24 10:07:00,47.2,45.6,29.86,ESE,111,2.0,3.0,94,0.01,,,0.13,VWS V14.01,2014-10-24 14:07:00,
2014-10-24 10:12:00,47.2,45.6,29.86,ESE,111,3.0,3.0,94,0.01,,,0.13,VWS V14.01,2014-10-24 14:12:00,
2014-10-24 10:16:00,47.0,45.4,29.86,ESE,111,0.0,3.0,94,0.01,,,0.13,VWS V14.01,2014-10-24 14:16:00,
2014-10-24 10:21:00,47.1,45.5,29.86,ESE,111,0.0,3.0,94,0.01,,,0.13,VWS V14.01,2014-10-24 14:21:00,
2014-10-24 10:26:00,47.2,45.6,29.86,ESE,111,1.0,3.0,94,0.01,,,0.13,VWS V14.01,2014-10-24 14:26:00,
2014-10-24 10:31:00,47.2,45.6,29.86,ESE,111,2.0,2.0,94,0.00,,,0.13,VWS V14.01,2014-10-24 14:31:00,
2014-10-24 10:36:00,47.3,45.7,29.86,ESE,111,0.0,3.0,94,0.00,,,0.13,VWS V14.01,2014-10-24 14:36:00,
2014-10-24 10:41:00,47.4,45.8,29.86,ESE,111,0.0,3.0,94,0.00,,,0.13,VWS V14.01,2014-10-24 14:41:00,
2014-10-24 10:46:00,47.4,45.8,29.86,ESE,114,0.0,4.0,94,0.00,,,0.13,VWS V14.01,2014-10-24 14:46:00,
2014-10-24 10:51:00,47.3,45.7,29.86,ESE,114,2.0,4.0,94,0.00,,,0.13,VWS V14.01,2014-10-24 14:51:00,
2014-10-24 10:56:00,47.3,45.7,29.86,ESE,114,1.0,4.0,94,0.00,,,0.13,VWS V14.01,2014-10-24 14:56:00,
2014-10-24 11:01:00,47.3,45.7,29.86,ESE,114,2.0,2.0,94,0.00,,,0.13,VWS V14.01,2014-10-24 15:01:00,
2014-10-24 11:06:00,47.4,45.8,29.86,SE,132,4.0,4.0,94,0.00,,,0.13,VWS V14.01,2014-10-24 15:06:00,
2014-10-24 11:11:00,47.4,45.8,29.86,SE,132,0.0,4.0,94,0.00,,,0.13,VWS V14.01,2014-10-24 15:11:00,
2014-10-24 11:16:00,47.6,46.0,29.85,SE,132,3.0,4.0,94,0.00,,,0.13,VWS V14.01,2014-10-24 15:16:00,
2014-10-24 11:21:00,47.5,45.9,29.86,SE,132,2.0,4.0,94,0.00,,,0.13,VWS V14.01,2014-10-24 15:21:00,
2014-10-24 11:26:00,47.6,46.0,29.86,SE,132,0.0,4.0,94,0.00,,,0.13,VWS V14.01,2014-10-24 15:26:00,
2014-10-24 11:31:00,47.7,45.8,29.86,SE,132,0.0,0.0,93,0.00,,,0.13,VWS V14.01,2014-10-24 15:31:00,
2014-10-24 11:36:00,47.7,46.1,29.86,SE,132,2.0,2.0,94,0.00,,,0.13,VWS V14.01,2014-10-24 15:36:00,
2014-10-24 11:41:00,47.7,46.1,29.86,SE,132,0.0,2.0,94,0.00,,,0.13,VWS V14.01,2014-10-24 15:41:00,
2014-10-24 11:46:00,47.7,46.1,29.86,SE,132,2.0,3.0,94,0.00,,,0.13,VWS V14.01,2014-10-24 15:46:00,
2014-10-24 11:51:00,47.6,46.0,29.86,SE,132,2.0,3.0,94,0.00,,,0.13,VWS V14.01,2014-10-24 15:51:00,
2014-10-24 11:56:00,47.6,46.0,29.85,SE,132,2.0,4.0,94,0.00,,,0.13,VWS V14.01,2014-10-24 15:56:00,
2014-10-24 12:01:00,47.7,46.1,29.85,SE,132,0.0,0.0,94,0.00,,,0.13,VWS V14.01,2014-10-24 16:01:00,
2014-10-24 12:06:00,47.9,46.3,29.85,SE,132,3.0,3.0,94,0.00,,,0.13,VWS V14.01,2014-10-24 16:06:00,
2014-10-24 12:11:00,48.1,46.2,29.85,SE,132,0.0,3.0,93,0.00,,,0.13,VWS V14.01,2014-10-24 16:11:00,
2014-10-24 12:16:00,48.4,46.8,29.84,SE,132,4.0,4.0,94,0.00,,,0.13,VWS V14.01,2014-10-24 16:16:00,
2014-10-24 12:21:00,48.3,46.7,29.84,SE,132,1.0,4.0,94,0.00,,,0.13,VWS V14.01,2014-10-24 16:21:00,
2014-10-24 12:26:00,48.2,46.6,29.84,SE,132,1.0,4.0,94,0.00,,,0.13,VWS V14.01,2014-10-24 16:26:00,